This is the latest recevied weather packets stored in our database for station/object IK6IHU-3. If no packets are shown the sender has not sent any weather packets the latest 1 day(s).
| Time | Temp. | Humidity | Pressure | Rain* | Wind** | Luminosity | Snow |
|---|---|---|---|---|---|---|---|
| 1778072966 | 22.78° C | 56% | 1010.8 hPa | 0 mm | - | 0 W/m² | - |
| 1778072545 | 21.67° C | 56% | 1011.2 hPa | 0 mm | - | 0 W/m² | - |
| 1778070626 | 21.11° C | 58% | 1011.2 hPa | 0 mm | - | 0 W/m² | - |
| 1778070399 | 20.56° C | 57% | 1011.5 hPa | 0 mm | - | 0 W/m² | - |
| 1778069366 | 21.11° C | 56% | 1011.4 hPa | 0 mm | - | 0 W/m² | - |
| 1778069305 | 21.11° C | 56% | 1011.5 hPa | 0 mm | - | 0 W/m² | - |
| 1778069006 | 20.56° C | 57% | 1011.5 hPa | 0 mm | - | 0 W/m² | - |
| 1778068826 | 21.11° C | 57% | 1011.5 hPa | 0 mm | - | 0 W/m² | - |
| 1778068645 | 21.11° C | 58% | 1011.6 hPa | 0 mm | - | 0 W/m² | - |
| 1778068465 | 20.56° C | 58% | 1011.4 hPa | 0 mm | - | 0 W/m² | - |
| 1778068225 | 20.56° C | 60% | 1011.4 hPa | 0 mm | - | 0 W/m² | - |
| 1778067985 | 21.11° C | 62% | 1011.5 hPa | 0 mm | - | 0 W/m² | - |
| 1778067806 | 20.56° C | 62% | 1011.3 hPa | 0 mm | - | 0 W/m² | - |
| 1778067745 | 20.56° C | 63% | 1011.4 hPa | 0 mm | - | 0 W/m² | - |
| 1778067625 | 20.56° C | 64% | 1011.4 hPa | 0 mm | - | 0 W/m² | - |
| 1778067445 | 20° C | 62% | 1011.7 hPa | 0 mm | - | 0 W/m² | - |
| 1778067386 | 20.56° C | 63% | 1011.7 hPa | 0 mm | - | 0 W/m² | - |
| 1778067326 | 20.56° C | 64% | 1011.7 hPa | 0 mm | - | 0 W/m² | - |
| 1778067145 | 20.56° C | 64% | 1011.6 hPa | 0 mm | - | 0 W/m² | - |
| 1778066665 | 20.56° C | 64% | 1011.6 hPa | 0 mm | - | 0 W/m² | - |
| 1778066545 | 20° C | 64% | 1011.6 hPa | 0 mm | - | 0 W/m² | - |
| 1778066305 | 20° C | 65% | 1011.7 hPa | 0 mm | - | 0 W/m² | - |
| 1778066185 | 20° C | 66% | 1011.7 hPa | 0 mm | - | 0 W/m² | - |
| 1778066125 | 19.44° C | 66% | 1011.5 hPa | 0 mm | - | 0 W/m² | - |
| 1778066065 | 19.44° C | 64% | 1011.7 hPa | 0 mm | - | 0 W/m² | - |
* Rain latest hour (hover to see other rain measurements)
** Current wind speed in m/s (hover to see current wind gust speed)